Tracking 19854 objects as of 21-Sep-2019
HD Live streaming from Space Station
objects crossing your sky now

SL-14 DEB

Track SL-14 DEB now!
10-day predictions


NORAD ID: 19139
Int'l Code: 1978-100M
Perigee: 1,704.0 km
Apogee: 1,943.5 km
Inclination: 82.1 °
Period: 123.0 minutes
Semi major axis: 8194 km
RCS: 0.0604 m2 (small)
Launch date: October 26, 1978
Source: Commonwealth of Independent States (former USSR) (CIS)
Launch site: PLESETSK MISSILE AND SPACE COMPLEX (PKMTR)

Note: This is SATELLITE DEBRIS
aabbcc
Your satellite tracking list
Your tracking list is empty




NASA's NSSDC Master Catalog

Two Line Element Set (TLE):
1 19139U 78100M   19262.69159663 +.00000040 +00000-0 +58347-3 0  9998
2 19139 082.1473 350.6201 0146134 286.5684 195.8758 11.70308696339059
Source of the keplerian elements: AFSPC